Location: Unspecified
(38.9820°N, 94.4650°W)
Time: 21:02:41
(UTC-06:00)

ISS - Visible Passes

Search period start: 23 January 2019 00:00
Search period end: 02 February 2019 00:00
Orbit: 404 x 410 km, 51.6° (Epoch: 24 January)

Date Brightness Start Highest point End Pass type
(mag) Time Alt. Az. Time Alt. Az. Time Alt. Az.
23 Jan -2.4 19:21:53 10° W 19:24:45 32° NW 19:24:45 32° NW visible
24 Jan -3.3 18:30:12 10° WSW 18:33:26 56° NW 18:35:42 18° NE visible
25 Jan -1.6 19:16:33 10° WNW 19:18:56 18° NNW 19:19:18 18° NNW visible
26 Jan -2.1 18:24:30 10° W 18:27:21 26° NNW 18:30:06 11° NNE visible
27 Jan -1.2 19:11:37 10° NW 19:13:04 12° NNW 19:13:34 12° N visible
28 Jan -1.4 18:19:15 10° WNW 18:21:22 16° NNW 18:23:29 10° NNE visible
30 Jan -1.2 18:14:23 10° NNW 18:15:27 11° NNW 18:16:32 10° N visible
